Temp
-6 -7 -7 -7 -7 -7 -7 -7 -7 -7 -6 -6 -6 -6 -6 -6 -6 -6 -6 -6 -6 -6 -6 -7 -7 -7 -7 -6 -6 -7 -8 -8 -7 -8 -7 -7 -7 -7 -7 -7 -7 -7 -7
-7 -7 -8 -7 -7 -8 -7 -7 -7 -7 -7 -7 -7 -7 -7 -6 -6 -6 -6 -7 -7 -7 -7 -7 -7 -6 -6 -6 -6 -7 -7 -7 -8 -8 -7 -7 -7 -7 -7 -7 -7 -7 -8
-7 -8 -8 -8 -8 -8 -8 -8 -8 -7 -7 -7 -7 -7 -7 -7 -7 -7 -7 -7 -7 -7 -7 -7 -7 -7 -6 -6 -6 -7 -7 -7 -8 -8 -7 -8 -7 -7 -7 -7 -7 -8 -8
-7 -8 -8 -8 -9 -8 -8 -8 -8 -8 -8 -8 -8 -7 -7 -7 -8 -8 -8 -7 -8 -8 -7 -7 -7 -6 -6 -7 -8 -8 -8 -8 -8 -7 -7 -8 -8 -8 -7 -7 -8 -8 -8
-7 -7 -8 -8 -8 -8 -9 -9 -9 -9 -9 -9 -9 -8 -8 -8 -9 -9 -9 -8 -8 -8 -8 -7 -7 -6 -6 -7 -8 -8 -8 -7 -8 -8 -8 -8 -8 -8 -8 -8 -8 -8 -8
-7 -8 -8 -8 -9 -9 -9 -9 -9 -10 -10 -9 -10 -10 -9 -9 -9 -9 -9 -9 -9 -9 -8 -7 -7 -7 -8 -8 -9 -9 -9 -8 -8 -8 -8 -9 -9 -8 -8 -9 -9 -9 -9
-8 -8 -8 -9 -9 -9 -10 -10 -10 -10 -9 -9 -10 -10 -10 -10 -10 -10 -10 -9 -9 -9 -8 -8 -7 -8 -9 -9 -9 -9 -9 -9 -9 -9 -9 -11 -10 -10 -9 -9 -9 -9 -9
-8 -9 -9 -9 -9 -10 -10 -10 -11 -11 -11 -11 -10 -10 -10 -10 -10 -10 -10 -10 -10 -9 -9 -9 -9 -9 -9 -9 -9 -9 -9 -9 -10 -10 -10 -10 -10 -10 -10 -10 -9 -9 -9
-9 -9 -10 -10 -10 -10 -11 -11 -11 -10 -12 -12 -11 -11 -11 -10 -11 -10 -11 -10 -10 -10 -9 -9 -10 -10 -9 -10 -10 -10 -10 -10 -10 -10 -10 -10 -10 -10 -10 -9 -9 -9 -9
-9 -10 -10 -10 -10 -10 -10 -12 -11 -10 -12 -12 -11 -11 -11 -11 -11 -11 -11 -10 -10 -10 -9 -10 -9 -10 -10 -10 -10 -10 -10 -10 -10 -10 -9 -10 -10 -10 -10 -10 -9 -9 -10
-10 -10 -11 -11 -11 -11 -11 -11 -12 -12 -11 -12 -11 -11 -12 -11 -11 -11 -11 -11 -10 -10 -10 -10 -10 -10 -10 -10 -10 -10 -10 -10 -10 -10 -10 -10 -10 -10 -10 -10 -10 -10 -10
-10 -10 -10 -10 -10 -11 -11 -11 -11 -11 -11 -11 -12 -12 -12 -12 -12 -12 -11 -11 -11 -10 -10 -10 -10 -10 -10 -10 -11 -10 -11 -11 -11 -10 -11 -10 -10 -10 -10 -10 -10 -10 -10
-10 -10 -10 -10 -10 -11 -11 -11 -11 -12 -11 -11 -11 -11 -12 -12 -11 -12 -11 -11 -11 -11 -11 -10 -10 -10 -10 -11 -11 -10 -11 -11 -11 -10 -10 -10 -10 -10 -10 -10 -10 -10 -10
-10 -10 -10 -10 -10 -10 -11 -11 -11 -11 -11 -11 -11 -11 -12 -12 -12 -12 -11 -11 -11 -11 -11 -10 -11 -10 -10 -10 -10 -10 -10 -10 -10 -10 -10 -10 -10 -10 -10 -10 -10 -10 -11
-11 -10 -10 -11 -10 -10 -11 -11 -10 -11 -10 -11 -11 -11 -12 -12 -12 -12 -11 -11 -11 -11 -11 -11 -11 -11 -11 -10 -10 -10 -10 -10 -10 -10 -10 -9 -9 -9 -10 -10 -11 -10 -11
-11 -11 -11 -11 -10 -10 -10 -10 -10 -11 -11 -11 -11 -11 -12 -12 -12 -12 -11 -11 -11 -11 -11 -11 -11 -11 -11 -10 -10 -10 -10 -10 -10 -10 -9 -9 -9 -10 -10 -10 -11 -11 -11
-11 -11 -11 -11 -11 -11 -11 -11 -11 -11 -11 -11 -11 -11 -12 -11 -11 -11 -11 -11 -11 -11 -11 -11 -11 -11 -11 -11 -10 -10 -10 -10 -10 -10 -10 -10 -10 -10 -10 -10 -10 -11 -11
-11 -11 -11 -11 -11 -11 -11 -11 -11 -11 -11 -11 -11 -11 -11 -11 -11 -10 -11 -11 -11 -11 -11 -11 -11 -11 -11 -10 -10 -10 -10 -10 -10 -10 -10 -10 -10 -10 -11 -11 -11 -11 -11
-12 -12 -11 -11 -11 -11 -11 -11 -12 -12 -12 -11 -11 -11 -11 -11 -11 -11 -10 -11 -11 -11 -11 -11 -11 -11 -11 -10 -11 -11 -11 -11 -10 -10 -11 -11 -11 -11 -11 -11 -11 -11 -12
-12 -12 -12 -11 -11 -11 -11 -11 -11 -11 -11 -10 -11 -11 -11 -11 -11 -11 -11 -10 -10 -11 -11 -11 -11 -11 -11 -10 -11 -11 -11 -11 -11 -11 -11 -11 -11 -11 -11 -11 -11 -11 -11
-12 -12 -11 -11 -11 -11 -11 -11 -11 -11 -11 -11 -11 -11 -11 -10 -11 -11 -10 -10 -11 -11 -11 -11 -11 -11 -11 -11 -11 -11 -11 -11 -11 -11 -12 -12 -12 -12 -12 -12 -12 -11 -12
-12 -12 -12 -11 -11 -11 -11 -11 -11 -11 -11 -11 -11 -10 -11 -11 -10 -10 -10 -10 -11 -11 -10 -10 -11 -11 -11 -11 -11 -11 -11 -12 -12 -11 -11 -12 -11 -11 -11 -12 -12 -12 -12
-12 -12 -12 -12 -11 -11 -11 -11 -11 -11 -11 -11 -10 -10 -10 -10 -10 -10 -10 -11 -11 -11 -10 -11 -11 -11 -11 -12 -12 -12 -12 -12 -11 -11 -11 -12 -12 -12 -12 -12 -13 -12 -12
-12 -12 -12 -12 -12 -11 -11 -11 -11 -11 -11 -11 -10 -10 -10 -10 -10 -10 -10 -10 -11 -11 -11 -11 -11 -11 -11 -11 -12 -12 -12 -12 -12 -12 -12 -12 -11 -12 -12 -12 -12 -12 -12
-12 -12 -12 -12 -12 -12 -12 -11 -11 -11 -11 -11 -11 -11 -10 -11 -10 -10 -10 -10 -10 -11 -11 -11 -11 -11 -13 -12 -11 -11 -12 -12 -12 -11 -12 -12 -12 -12 -13 -12 -12 -12 -12
-12 -12 -12 -12 -12 -12 -12 -12 -12 -12 -11 -11 -11 -11 -11 -11 -11 -11 -11 -11 -11 -11 -11 -11 -11 -11 -11 -12 -12 -12 -12 -12 -12 -12 -12 -12 -12 -12 -12 -12 -12 -12 -12
Height
5889 5886 5883 5880 5877 5874 5869 5866 5863 5860 5855 5851 5847 5844 5840 5837 5833 5830 5829 5828 5826 5825 5823 5823 5822 5820 5818 5816 5811 5809 5808 5808 5807 5810 5811 5814 5816 5818 5822 5824 5826 5830 5831
5880 5877 5873 5870 5866 5862 5857 5853 5849 5845 5842 5836 5834 5829 5825 5823 5820 5817 5816 5815 5814 5813 5813 5810 5811 5808 5807 5803 5800 5798 5794 5793 5797 5799 5800 5803 5806 5808 5810 5813 5816 5819 5821
5870 5866 5862 5859 5855 5850 5846 5842 5838 5834 5830 5825 5819 5814 5811 5808 5805 5804 5802 5802 5801 5801 5800 5798 5797 5795 5793 5789 5786 5783 5781 5781 5785 5789 5791 5794 5797 5800 5803 5805 5809 5811 5814
5859 5856 5851 5847 5842 5837 5832 5826 5821 5817 5812 5811 5807 5801 5797 5793 5791 5789 5788 5788 5788 5788 5788 5787 5785 5782 5779 5776 5772 5771 5771 5772 5775 5778 5782 5784 5787 5790 5794 5797 5801 5804 5807
5847 5846 5840 5833 5828 5824 5819 5813 5807 5802 5797 5793 5790 5788 5784 5781 5778 5776 5775 5775 5776 5776 5776 5775 5773 5769 5765 5763 5762 5763 5761 5763 5765 5767 5771 5775 5780 5783 5785 5789 5793 5795 5799
5833 5831 5826 5821 5816 5811 5804 5797 5793 5788 5783 5778 5775 5773 5771 5768 5766 5764 5763 5762 5764 5764 5764 5763 5761 5758 5756 5755 5755 5756 5754 5756 5757 5758 5762 5766 5771 5775 5778 5783 5786 5788 5793
5818 5816 5813 5809 5803 5796 5790 5783 5778 5772 5768 5763 5761 5760 5758 5756 5755 5753 5752 5752 5753 5755 5753 5753 5751 5750 5750 5750 5750 5751 5751 5752 5754 5756 5759 5764 5769 5774 5777 5780 5782 5784 5787
5809 5803 5797 5793 5787 5780 5775 5768 5761 5756 5752 5748 5747 5746 5744 5743 5744 5743 5742 5742 5743 5745 5746 5746 5745 5745 5745 5745 5746 5747 5749 5750 5753 5755 5759 5764 5766 5770 5775 5778 5779 5781 5783
5798 5791 5786 5779 5771 5766 5761 5753 5740 5741 5738 5737 5735 5735 5734 5733 5732 5732 5732 5733 5734 5735 5737 5738 5738 5738 5738 5740 5743 5745 5746 5747 5750 5753 5755 5759 5764 5767 5771 5773 5776 5777 5779
5783 5778 5773 5766 5759 5753 5748 5739 5732 5703 5721 5725 5723 5723 5721 5722 5722 5722 5722 5724 5725 5727 5729 5730 5731 5732 5734 5737 5739 5742 5743 5744 5748 5750 5753 5757 5759 5763 5765 5768 5772 5773 5775
5770 5765 5759 5752 5745 5739 5735 5730 5718 5714 5707 5711 5710 5708 5707 5711 5712 5710 5711 5714 5716 5718 5721 5723 5726 5728 5730 5733 5734 5737 5739 5741 5743 5746 5748 5750 5754 5759 5761 5765 5767 5769 5772
5758 5752 5746 5739 5733 5726 5721 5719 5712 5708 5697 5701 5699 5698 5700 5701 5702 5697 5695 5704 5708 5711 5714 5718 5720 5722 5724 5727 5730 5732 5734 5737 5739 5742 5744 5747 5751 5755 5758 5760 5761 5764 5767
5745 5739 5732 5726 5720 5714 5707 5705 5701 5695 5693 5692 5690 5692 5694 5694 5695 5695 5696 5696 5701 5705 5708 5711 5714 5716 5719 5721 5724 5727 5730 5732 5735 5738 5741 5745 5748 5750 5752 5755 5758 5759 5764
5732 5727 5720 5713 5707 5701 5695 5691 5688 5686 5684 5684 5682 5684 5686 5688 5689 5690 5691 5694 5696 5699 5702 5706 5710 5712 5716 5718 5720 5723 5726 5729 5732 5735 5738 5741 5744 5745 5748 5750 5753 5755 5757
5721 5716 5709 5701 5694 5688 5683 5677 5675 5676 5677 5676 5675 5677 5679 5680 5683 5683 5686 5690 5692 5695 5698 5702 5705 5708 5711 5714 5717 5719 5721 5725 5728 5731 5734 5737 5739 5741 5743 5745 5745 5747 5749
5710 5705 5698 5691 5683 5676 5673 5670 5667 5667 5668 5667 5667 5670 5673 5675 5677 5678 5682 5685 5688 5690 5693 5696 5699 5702 5706 5709 5712 5715 5718 5721 5725 5727 5730 5732 5733 5735 5737 5739 5741 5742 5742
5700 5694 5688 5682 5675 5671 5670 5664 5659 5658 5659 5661 5663 5665 5668 5671 5673 5675 5679 5681 5683 5685 5688 5691 5694 5696 5699 5703 5707 5711 5714 5716 5719 5722 5724 5725 5727 5729 5731 5732 5734 5735 5736
5691 5685 5680 5676 5670 5665 5662 5657 5656 5652 5654 5656 5659 5660 5664 5666 5669 5672 5674 5677 5679 5680 5683 5686 5689 5692 5695 5697 5702 5706 5709 5711 5713 5715 5717 5719 5719 5720 5722 5723 5724 5726 5728
5682 5677 5672 5668 5664 5660 5657 5654 5653 5649 5650 5652 5658 5659 5659 5661 5664 5668 5670 5671 5673 5675 5678 5682 5684 5687 5690 5693 5696 5698 5701 5703 5706 5709 5710 5710 5711 5712 5713 5714 5716 5717 5719
5674 5670 5666 5662 5658 5655 5653 5651 5650 5650 5649 5651 5652 5652 5653 5654 5654 5660 5665 5666 5668 5671 5673 5675 5677 5681 5683 5687 5689 5692 5694 5696 5697 5699 5699 5701 5703 5704 5705 5706 5708 5709 5711
5668 5664 5660 5658 5654 5651 5650 5649 5648 5647 5648 5647 5644 5645 5647 5640 5651 5651 5657 5661 5662 5664 5667 5669 5670 5673 5675 5678 5681 5682 5685 5686 5688 5689 5690 5692 5694 5695 5696 5698 5698 5700 5702
5663 5659 5656 5652 5649 5648 5645 5644 5643 5643 5643 5643 5642 5638 5640 5637 5644 5646 5650 5653 5654 5655 5657 5659 5661 5664 5667 5668 5669 5671 5672 5675 5677 5679 5680 5680 5683 5686 5688 5690 5692 5692 5693
5658 5655 5652 5649 5644 5641 5639 5639 5639 5638 5638 5638 5637 5637 5636 5636 5638 5641 5643 5645 5645 5646 5648 5650 5653 5655 5656 5657 5658 5659 5663 5666 5667 5668 5669 5671 5675 5677 5680 5677 5676 5677 5682
5653 5651 5649 5645 5642 5640 5638 5635 5634 5634 5632 5632 5632 5631 5630 5631 5630 5633 5635 5635 5635 5638 5640 5641 5642 5645 5645 5647 5649 5653 5654 5656 5659 5660 5660 5664 5660 5664 5668 5666 5659 5657 5668
5651 5648 5645 5642 5639 5638 5635 5633 5630 5628 5627 5627 5625 5625 5624 5623 5624 5625 5624 5623 5624 5629 5630 5630 5630 5630 5633 5634 5636 5640 5642 5643 5646 5644 5650 5653 5656 5657 5660 5658 5657 5658 5661
5647 5644 5641 5638 5635 5632 5630 5628 5626 5624 5623 5621 5620 5618 5617 5616 5616 5616 5617 5616 5616 5616 5618 5619 5619 5618 5620 5622 5624 5628 5629 5628 5631 5633 5638 5638 5642 5645 5644 5644 5647 5647 5648
Wind_Speed
40 40 40 41 42 43 45 45 45 46 48 49 50 49 47 47 49 47 44 41 41 38 37 38 38 39 40 42 45 47 48 45 40 36 40 42 45 44 38 42 40 33 32
40 41 43 45 47 49 51 52 52 53 53 54 52 50 51 50 49 48 45 44 42 39 39 40 39 40 41 43 45 49 51 44 37 36 30 31 36 41 33 33 41 37 33
41 44 47 49 51 54 56 57 57 57 55 54 52 50 49 48 49 49 46 43 43 41 42 42 39 39 42 43 46 45 42 39 36 30 36 32 30 33 34 33 35 29 32
44 46 49 52 55 58 61 62 62 61 59 51 48 49 50 49 48 47 45 43 43 43 43 41 37 40 43 45 40 37 34 33 32 39 36 32 32 38 36 35 33 34 33
49 48 51 56 59 61 62 63 63 62 61 58 55 49 49 48 46 46 44 42 41 40 40 37 36 39 41 36 29 29 36 37 29 31 33 27 32 31 27 22 30 28 25
52 52 55 58 60 61 63 64 62 63 63 60 53 44 43 41 39 42 41 40 38 38 35 33 34 32 27 24 26 26 22 26 25 19 21 19 19 19 22 20 15 15 15
62 59 57 58 60 63 64 64 62 61 60 57 48 41 39 37 36 37 38 36 34 32 30 29 25 25 20 17 18 27 20 18 23 25 19 15 18 15 16 14 14 15 12
58 59 61 62 62 61 63 61 58 55 46 42 40 36 34 34 37 34 35 32 31 28 27 27 27 25 27 21 18 20 24 20 16 18 17 19 17 17 18 15 13 11 12
56 58 58 60 61 56 54 59 54 48 38 34 36 36 36 35 34 34 31 32 29 27 28 26 23 26 20 16 15 17 14 14 14 17 18 18 17 19 17 15 14 12 12
55 57 57 56 56 53 53 58 54 38 37 35 34 36 36 38 34 31 29 29 28 26 27 23 20 23 22 20 17 17 15 17 15 17 20 19 18 17 15 15 14 15 14
55 54 52 53 55 54 50 47 52 47 47 36 32 43 32 32 30 30 30 26 27 26 26 22 20 24 25 20 15 15 16 17 19 19 16 16 17 19 18 17 15 15 11
50 49 51 50 49 50 48 45 44 46 44 26 22 25 24 25 29 33 22 22 25 26 23 20 20 24 21 19 21 18 17 18 18 17 17 17 18 19 19 17 15 17 13
48 49 50 50 49 47 49 45 44 42 30 29 24 24 23 24 28 25 20 20 24 25 22 23 23 24 20 19 18 16 18 17 16 16 18 19 18 18 16 16 16 18 17
48 48 47 51 48 46 47 45 43 37 32 26 27 25 24 23 25 19 18 19 23 23 21 22 21 19 13 19 17 16 15 15 15 15 15 15 15 15 16 18 19 20 20
43 45 49 49 47 46 45 43 38 30 26 24 20 21 22 22 22 18 18 21 22 20 21 21 21 20 18 19 19 17 17 17 16 16 15 14 14 16 18 19 22 23 22
45 47 46 45 43 36 31 28 23 20 22 23 23 23 21 21 20 17 19 18 19 18 19 21 21 23 24 25 23 21 20 20 19 18 18 19 19 20 21 22 23 23 24
44 43 40 38 34 28 26 22 18 15 13 12 12 14 17 17 17 17 18 17 18 19 20 20 20 20 22 26 25 22 21 22 23 22 22 22 23 25 26 26 26 26 26
41 38 35 32 34 28 20 18 14 13 9 12 14 15 14 17 18 18 19 18 19 20 22 22 23 22 21 24 25 23 23 24 25 25 25 26 27 27 25 25 25 25 26
34 32 30 30 29 22 18 14 16 10 14 15 16 15 15 17 19 19 19 20 19 21 23 22 22 25 24 23 24 25 25 26 27 27 28 28 26 24 24 24 23 24 25
26 30 26 24 18 16 12 11 12 11 16 18 16 15 18 17 18 20 20 21 20 21 24 24 23 24 25 25 25 26 27 29 29 27 25 24 23 23 24 22 23 24 24
25 27 24 23 18 17 13 10 10 9 9 7 14 20 25 26 19 18 20 22 23 23 24 27 28 28 28 28 29 30 30 30 25 25 25 24 25 25 25 25 25 24 26
22 21 22 23 26 24 19 16 15 13 14 13 14 17 20 19 19 21 25 24 24 26 28 30 31 33 33 33 33 32 32 30 28 29 29 29 29 26 27 25 27 26 24
22 22 23 24 22 23 14 14 15 15 15 18 15 15 19 25 27 28 25 28 31 32 30 30 30 32 36 37 37 36 33 30 31 33 34 32 28 28 29 34 31 26 22
19 20 23 25 23 19 16 14 15 16 18 16 16 19 17 20 23 28 33 38 34 32 33 35 35 34 34 35 37 35 33 33 33 35 34 31 30 29 32 37 37 21 18
19 21 21 22 21 18 18 20 23 20 19 19 16 17 18 19 21 23 27 35 45 33 35 36 30 41 44 42 43 44 39 39 44 38 35 36 38 38 28 32 29 33 35
23 23 23 23 23 22 21 20 20 19 18 22 20 16 18 19 23 30 31 35 39 41 42 37 34 40 36 37 35 36 28 33 37 38 35 32 30 33 42 38 37 38 38
Wind_Direction
305 304 303 303 303 304 303 303 302 301 300 300 298 295 293 289 287 287 286 282 282 280 280 279 279 281 283 288 286 280 286 281 275 255 255 254 259 262 256 245 238 244 256
297 297 298 300 302 303 303 303 304 305 304 302 299 296 293 290 286 284 282 280 278 276 276 279 278 279 282 283 284 281 283 273 264 251 247 249 256 257 243 233 242 260 263
294 295 295 297 299 300 300 301 301 301 301 301 297 293 290 287 285 282 280 277 275 274 274 278 278 279 282 284 283 276 273 269 251 245 244 237 243 241 245 251 256 258 259
292 294 295 295 296 298 300 301 302 302 301 298 293 289 287 286 284 281 278 275 275 274 278 279 278 280 285 283 274 264 261 253 246 240 242 238 244 246 251 255 254 252 261
295 296 296 294 296 298 299 299 299 299 298 298 297 294 288 288 287 283 278 274 275 274 278 277 278 284 282 272 266 253 257 254 249 236 228 232 230 238 242 250 246 245 237
301 298 296 297 296 296 296 296 297 299 298 298 296 294 292 290 285 281 277 274 274 276 279 275 281 280 276 278 254 232 217 216 216 223 221 198 225 241 248 235 218 202 210
301 300 297 297 298 296 299 299 301 299 298 298 294 291 286 284 284 284 277 272 273 276 272 277 281 280 260 255 247 234 221 204 214 232 227 204 216 224 230 240 216 207 208
300 301 301 302 300 300 300 299 298 299 294 291 291 286 280 276 276 282 276 267 269 271 263 266 268 267 266 264 255 247 233 233 206 212 218 219 224 224 233 233 223 217 216
297 297 299 300 301 302 304 299 294 293 284 291 291 289 282 272 273 276 273 263 264 266 259 266 266 263 242 240 247 236 214 222 224 232 226 239 235 239 237 233 228 229 214
296 298 299 299 301 301 300 296 295 303 310 299 291 296 292 276 273 273 265 260 258 253 253 260 264 237 228 253 231 216 218 218 233 234 240 240 241 240 238 233 236 231 219
298 300 301 301 301 302 299 296 298 296 294 287 288 306 269 270 270 263 253 250 248 242 247 251 245 249 267 234 222 225 234 235 240 232 233 239 238 237 233 237 235 236 235
301 302 302 302 299 299 298 298 292 297 293 290 300 304 265 272 267 266 262 238 239 240 242 240 241 255 233 221 228 228 218 222 227 221 221 225 227 229 231 229 230 237 234
304 304 303 302 301 301 298 297 299 302 298 303 298 285 273 273 264 265 271 235 240 244 246 241 234 250 217 214 216 210 205 210 213 213 212 220 227 232 228 229 234 246 241
303 305 305 305 305 303 300 297 294 291 290 290 294 266 263 265 260 252 248 247 243 246 243 246 251 256 220 212 209 211 204 210 214 214 219 217 223 226 230 236 239 243 248
304 307 308 307 306 301 300 301 298 285 281 278 271 261 258 258 250 236 241 242 240 239 246 250 248 241 224 221 221 214 209 211 216 218 222 230 236 243 243 243 250 253 250
304 308 309 310 309 306 308 306 299 279 280 279 264 259 247 245 236 227 231 234 237 239 241 242 240 237 230 226 226 219 217 219 223 230 236 242 249 252 254 253 250 250 254
308 306 308 312 313 314 313 306 290 268 277 271 251 238 235 234 229 228 229 230 236 237 237 236 235 232 227 229 226 223 223 228 231 239 246 254 259 264 261 258 253 251 249
310 310 306 306 314 308 316 296 280 254 242 235 252 237 236 233 232 234 230 233 238 239 241 238 234 232 229 226 225 228 228 231 241 247 256 264 265 262 260 257 256 252 250
312 310 307 308 312 306 298 308 321 305 290 277 263 235 222 233 240 247 243 235 237 239 246 244 236 235 235 234 230 233 235 240 245 253 261 262 259 260 262 262 261 258 252
308 312 305 315 308 313 300 298 295 285 275 273 270 231 236 235 225 241 250 248 241 240 243 246 246 243 242 239 240 242 245 251 256 260 261 262 268 270 270 269 267 269 267
312 316 301 304 303 300 298 287 288 279 292 309 278 252 250 235 240 241 245 249 249 245 244 242 243 243 244 245 244 246 248 250 252 256 257 260 263 265 266 264 262 262 263
313 316 305 307 319 304 282 280 284 288 289 299 290 270 259 255 265 249 243 246 248 248 244 241 240 241 243 242 243 245 246 245 249 255 257 260 263 262 262 261 263 260 259
305 309 318 319 316 320 318 273 282 286 290 291 288 278 261 256 246 244 249 249 247 251 254 255 254 252 248 245 245 244 245 245 248 258 259 258 260 265 267 246 242 244 258
311 312 315 316 317 319 305 303 277 288 285 277 272 284 270 261 258 238 226 248 249 252 260 259 258 257 254 251 250 251 250 250 257 261 260 258 253 264 256 246 247 237 274
320 314 318 318 321 313 312 308 307 305 291 295 296 277 280 274 252 253 241 238 247 256 264 273 270 260 247 251 249 255 247 246 258 243 250 246 248 249 261 240 255 251 259
312 313 313 313 316 318 314 311 307 304 300 285 297 300 276 274 254 238 248 255 254 252 261 267 251 261 260 248 232 230 262 251 224 234 246 253 247 241 257 262 259 256 257